Weather History for Montreal Mirabel, QC

Change the Weather History Date:

Thursday, December 22, 2011

  Actual Average Record
Temperature  
Mean Temperature 34 °F -  
Max Temperature 37 °F 24 °F 37 °F (2011)
Min Temperature 32 °F 10 °F -5 °F (1997)
Degree Days  
Heating Degree Days 30    
Moisture  
Dew Point 31 °F    
Average Humidity 91    
Maximum Humidity 100    
Minimum Humidity 75    
Precipitation  
Precipitation 0.00 in - - ()
Sea Level Pressure  
Sea Level Pressure 29.96 in    
Wind  
Wind Speed 4 mph ()    
Max Wind Speed 8 mph    
Max Gust Speed -    
Visibility 12.4 miles    
Events Snow    
Averages and records for this station are not official NWS values.
T = Trace of Precipitation, MM = Missing Value Source: Averaged Metar Reports

Daily Weather History Graph

Daily Weather History Graph

Search for Another Location

Airport:

Trip Planner

Search our weather history database for the weather conditions in past years. The results will help you decide how hot, cold, wet, or windy it might be!

Date:

Astronomy

Dec. 22, 2011 Rise Set
Actual Time 7:34 AM EST 4:15 PM EST
Civil Twilight 6:59 AM EST 4:49 PM EST
Nautical Twilight 6:22 AM EST 5:27 PM EST
Astronomical Twilight 5:45 AM EST 6:03 PM EST
Moon 5:14 AM EST (12/22) 2:23 PM EST (12/22)
Length of Visible Light 9h 49m
Length of Day
8h 40m
Waning Crescent, 6% of the Moon is Illuminated
Dec 22
Waning Crescent
Dec 24
New
Jan 1
First Quarter
Jan 9
Full
Jan 16
Last Quarter

Hourly Weather History & Observations

Time (EST) Temp. Windchill Dew Point Humidity Pressure Visibility Wind Dir Wind Speed Gust Speed Precip Events Conditions
12:00 AM 32.0 °F 27.5 °F 30.2 °F 93% 29.64 in 2.5 mi North 4.6 mph - N/A   Light Freezing Drizzle
12:33 AM 32.0 °F - 32.0 °F 100% - 2.5 mi NE 2.3 mph - N/A   Light Drizzle
1:00 AM 32.0 °F 28.7 °F 32.0 °F 100% 29.68 in 2.5 mi West 3.5 mph - N/A   Light Drizzle
2:00 AM 32.0 °F 28.7 °F 32.0 °F 100% 29.71 in 3.0 mi WSW 3.5 mph - N/A   Light Drizzle
3:00 AM 32.0 °F 26.4 °F 32.0 °F 100% 29.75 in 8.0 mi SSW 5.8 mph - N/A   Overcast
5:00 AM 33.8 °F 29.6 °F 32.0 °F 93% 29.85 in 10.0 mi WSW 4.6 mph - N/A   Overcast
6:00 AM 33.8 °F 28.6 °F 32.0 °F 93% 29.90 in 15.0 mi WSW 5.8 mph - N/A   Overcast
8:00 AM 32.0 °F 27.5 °F 28.4 °F 87% 29.99 in 15.0 mi West 4.6 mph - N/A   Overcast
9:00 AM 32.0 °F 26.4 °F 28.4 °F 87% 30.01 in 15.0 mi West 5.8 mph - N/A   Mostly Cloudy
10:00 AM 32.0 °F 24.8 °F 28.4 °F 87% 30.01 in 20.0 mi SW 8.1 mph - N/A   Mostly Cloudy
11:00 AM 33.8 °F 27.7 °F 28.4 °F 81% 30.01 in 25.0 mi SW 6.9 mph - N/A   Scattered Clouds
12:00 PM 33.8 °F 27.0 °F 30.2 °F 87% 30.01 in 20.0 mi WSW 8.1 mph - N/A   Mostly Cloudy
1:00 PM 35.6 °F 30.7 °F 32.0 °F 87% 30.01 in 20.0 mi SW 5.8 mph - N/A   Mostly Cloudy
2:00 PM 37.4 °F 31.4 °F 30.2 °F 75% 30.03 in 25.0 mi SW 8.1 mph - N/A   Mostly Cloudy
3:00 PM 35.6 °F 29.2 °F 30.2 °F 81% 30.04 in 25.0 mi SW 8.1 mph - N/A   Overcast
4:00 PM 35.6 °F 31.7 °F 30.2 °F 81% 30.07 in 25.0 mi SW 4.6 mph - N/A   Overcast
6:00 PM 33.8 °F 29.6 °F 30.2 °F 87% 30.09 in 25.0 mi SW 4.6 mph - N/A   Overcast
7:00 PM 33.8 °F - 32.0 °F 93% 30.09 in 20.0 mi SW 2.3 mph - N/A   Overcast
7:24 PM 33.8 °F - 32.0 °F 93% - 20.0 mi Calm Calm - N/A Snow Light Snow Showers
8:00 PM 32.0 °F - 32.0 °F 100% 30.07 in 25.0 mi SW 2.3 mph - N/A Snow Light Snow Showers
9:00 PM 32.0 °F - 30.2 °F 93% 30.06 in 25.0 mi Calm Calm - N/A   Overcast
10:00 PM 32.0 °F - 30.2 °F 93% 30.04 in 25.0 mi Calm Calm - N/A   Overcast
11:00 PM 32.0 °F - 30.2 °F 93% 30.04 in 25.0 mi Calm Calm - N/A   Overcast